Regional Weather Roundup
Issued by NWS

Home | Current Version | Previous Version | Text Only | Print | Product List | Glossary On
Versions: 1 2 3 4 5 6 7 8 9 10 11 12 13 14 15 16 17 18 19 20 21 22 23 24 25 26 27 28 29 30 31 32 33 34 35 36 37 38 39 40 41 42 43 44 45 46 47 48 49 50
000
ASUS46 KSEW 210910
RWRWA

WASHINGTON REGIONAL WEATHER ROUNDUP
NATIONAL WEATHER SERVICE SEATTLE WA
100 AM PST TUE FEB 21 2017

NOTE:"FAIR" INDICATES FEW OR NO CLOUDS BELOW 12,000 FEET WITH NO
SIGNIFICANT WEATHER AND/OR OBSTRUCTIONS TO VISIBILITY.

WAZ507-509-555>559-211000-
SEATTLE, TACOMA, EVERETT, AND VICINITY

CITY           SKY/WX    TMP DP  RH WIND       PRES   REMARKS
EVERETT        CLOUDY    41  40  96 N3        29.71F
BOEING FIELD   CLOUDY    43  43 100 N3        29.71F
RENTON         CLOUDY    43  43 100 NW6       29.70F
SEATAC AIRPORT CLOUDY    42  40  92 N6        29.70F
JBLM-MCCHORD   CLOUDY    43  43 100 N6        29.69F
PUYALLUP         N/A     39  39 100 CALM      29.69F FOG
BREMERTON      CLOUDY    43  41  93 N3        29.73F
JBLM-FT LEWIS  CLOUDY    43  43 100 NW3       29.69S
TACOMA NARROWS CLOUDY    42  42 100 N6        29.70S
$$

WAZ001-503-506-510-514-515-211000-
NORTH INTERIOR

CITY           SKY/WX    TMP DP  RH WIND       PRES   REMARKS
BELLINGHAM     CLOUDY    42  41  96 CALM      29.75R FOG
FRIDAY HARBOR  CLOUDY    43  41  93 CALM      29.76R
EASTSOUND      CLOUDY    41  41 100 CALM      29.74R FOG
PORT ANGELES   LGT RAIN  41  41 100 CALM      29.74R FOG
EDIZ HOOK      RAIN      43  41  93 S3        29.75R
PORT TOWNSEND  LGT RAIN  43  43 100 NW5       29.74S
NAS WHIDBEY    CLOUDY    43  39  86 CALM      29.78S
ARLINGTON      MOCLDY    39  34  81 N6        29.75S
BURLINGTON     CLOUDY    43  41  93 NE6       29.74S
$$

WAZ020-022-039-040-504-511-512-211000-
SOUTHWEST INTERIOR

CITY           SKY/WX    TMP DP  RH WIND       PRES   REMARKS
SHELTON        CLOUDY    43  41  93 N6        29.68F
OLYMPIA        CLOUDY    43  43 100 CALM      29.70S FOG
CHEHALIS       CLOUDY    45  45 100 CALM      29.69S
KELSO          CLOUDY    43  43 100 NW3       29.69R
VANCOUVER      LGT RAIN  44  44 100 W3        29.66S
SCAPPOOSE, OR  CLOUDY    44  43  96 W3        29.66S
PORTLAND, OR   LGT RAIN  41  41 100 NW3       29.67R FOG
$$

WAZ021-516-517-211000-
WASHINGTON COAST

CITY           SKY/WX    TMP DP  RH WIND       PRES   REMARKS
FORKS          CLEAR     32  32 100 CALM      29.73R
HOQUIAM        CLOUDY    43  43 100 NE5       29.70R
ASTORIA, OR    CLOUDY    43  41  93 CALM      29.69R
$$

WAZ019-023-024-040-567>569-211000-
CASCADE MOUNTAINS AND COLUMBIA GORGE

CITY           SKY/WX    TMP DP  RH WIND       PRES   REMARKS
STAMPEDE PASS  NOT AVBL
TROUTDALE, OR  LGT RAIN  44  41  89 NE3       29.66R
THE DALLES, OR LGT RAIN  39  38  96 SW3       29.68F
$$

WAZ026-027-041>044-520-521-211000-
EAST SLOPES

CITY           SKY/WX    TMP DP  RH WIND       PRES   REMARKS
OMAK           CLOUDY    35  32  88 NW5       29.72F
WENATCHEE      FOG       31  31 100 NW6       29.69S VSB 1/4
ELLENSBURG     CLOUDY    31  28  89 NE5       29.66F FOG
YAKIMA         CLOUDY    36  33  89 CALM      29.68F
SUNNYSIDE ARPT CLOUDY    34  32  92 W6        29.68S
$$

WAZ028-034-035-211000-
COLUMBIA BASIN

CITY           SKY/WX    TMP DP  RH WIND       PRES   REMARKS
EPHRATA        CLOUDY    32  28  85 N9        29.71S
MOSES LAKE     CLOUDY    29  27  92 N8        29.71F
PASCO          LGT RAIN  38  35  89 CALM      29.69F
HERMISTON, OR  LGT RAIN  42  41  96 CALM      29.66F
$$

WAZ036>038-211000-
NORTHEAST WASHINGTON

CITY           SKY/WX    TMP DP  RH WIND       PRES   REMARKS
SPOKANE GEIGER CLOUDY    33  32  96 CALM      29.70S
SPOKANE FELTS  CLOUDY    34  33  96 CALM      29.72S
FAIRCHILD AFB  MOCLDY    32  32 100 E5        29.68F
COEURDALENE,ID CLOUDY    32  31  96 E3        29.71F
DEER PARK      CLOUDY    33  30  88 CALM      29.71F
$$

WAZ029>033-211000-
SOUTHEAST WASHINGTON

CITY           SKY/WX    TMP DP  RH WIND       PRES   REMARKS
PULLMAN        CLOUDY    39  33  79 VRB5      29.70S
LEWISTON, ID   LGT RAIN  44  36  73 NW6       29.69S
WALLA WALLA    CLOUDY    44  39  82 NE9       29.66F
PENDLETON, OR  CLOUDY    40  38  93 E7        29.64F
$$



USA.gov is the U.S. government's official web portal to all federal, state and local government web resources and services.